Powrót do katalogu

3CAT-5/B

TYVAK-0162

AktywnyNaukaSSO
NORAD 46293·PAYLOAD·🇪🇸 Spain

Wystrzelony Sep 3, 2020 z Guiana Space Centre

Loading…

Następne Przeloty (najbliższe 24 godziny)

TLE

ŚwieżeSource: Space-Track

Epoka: Sep 14, 2026, 10:37 UTC

1 46293U 20061X   26257.44241698  .00014730  00000-0  26141-3 0  9995
2 46293  97.2293 321.5196 0003118 131.4873 228.6647 15.50315336334877

Śledź 3CAT-5/B w czasie rzeczywistym z AllMySat

Download on the App Store